Home   Weather   Potsdam   Past weeks

Flag for Germany Past Weather in Potsdam, Brandenburg, Germany — Yesterday and Last 2 Weeks

Now
46 °F

Scattered clouds.


Feels Like: 39 °F
Forecast: 34 / 54 °F
Wind: 17 mph from West

Location: Berlin-Tegel

Current Time: Apr 23, 2017 at 3:51:25 pm

Latest Report: Apr 23, 2017 at 3:20 pm


Visibility: N/A

Pressure: 30.07 "Hg

Humidity: 57%

Dew Point: 32 °F

Location of PotsdamLocation

Past Weather in Potsdam — Graph

°F

Potsdam Temperature Yesterday

Maximum temperature yesterday: 52 °F (at 12:20 am)
Minimum temperature yesterday: 39 °F (at 6:20 am)
Average temperature yesterday: 45 °F

High & Low Weather Summary for the Past Weeks

 TemperatureHumidityPressure
High68 °F (Apr 10, 11:50 am)100% (Apr 17, 4:20 am)30.60 "Hg (Apr 17, 4:20 am)
Low28 °F (Apr 20, 4:20 am)34% (Apr 19, 4:50 pm)29.74 "Hg (Apr 12, 7:50 pm)
Average46 °F70%30.08 "Hg
* Reported Apr 8 2:20 pm — Apr 23 2:20 pm, Potsdam, Weather by CustomWeather, © 2017

Note: Actual official high and low records may vary slightly from our data, if they occured in-between our weather recording intervals... More about our weather records

Advertising

Potsdam Weather History for the Previous 24 Hours

Scroll right to see more
 ConditionsComfort  
Time TempWeatherWind HumidityBarometerVisibility
2:20 pm
Sun, Apr 23
45 °FBroken clouds.14 mph71%30.07 "HgN/A
1:50 pm46 °FBroken clouds.17 mph66%30.07 "HgN/A
1:20 pm43 °FSprinkles. Broken clouds.16 mph81%30.07 "HgN/A
12:50 pm46 °FPartly sunny.9 mph71%30.07 "HgN/A
12:20 pm43 °FSprinkles. Scattered clouds.10 mph81%30.07 "HgN/A
11:50 am45 °FScattered clouds.10 mph81%30.07 "HgN/A
11:20 am45 °FSprinkles. Broken clouds.16 mph76%30.07 "HgN/A
10:50 am43 °FSprinkles. Broken clouds.13 mph76%30.09 "HgN/A
10:20 am43 °FLight rain. Broken clouds.13 mph87%30.09 "HgN/A
9:50 am41 °FLight rain. Broken clouds.16 mph87%30.09 "HgN/A
9:20 am41 °FLight rain. Partly sunny.13 mph87%30.07 "HgN/A
8:50 am41 °FLight rain. Partly sunny.10 mph87%30.07 "HgN/A
8:20 am41 °FLight rain. Partly sunny.9 mph81%30.07 "HgN/A
7:50 am41 °FPartly sunny.9 mph87%30.07 "HgN/A
7:20 am41 °FBroken clouds.9 mph81%30.07 "HgN/A
6:50 am41 °FPartly sunny.12 mph81%30.07 "HgN/A
6:20 am41 °FPartly sunny.12 mph81%30.04 "HgN/A
5:50 am41 °FPassing clouds.10 mph81%30.04 "HgN/A
5:20 am39 °FPartly cloudy.12 mph87%30.04 "HgN/A
4:50 am39 °FPassing clouds.12 mph87%30.04 "HgN/A
4:20 am39 °FPassing clouds.10 mph87%30.04 "HgN/A
3:50 am39 °FPassing clouds.9 mph87%30.04 "HgN/A
3:20 am39 °FPassing clouds.10 mph87%30.04 "HgN/A
2:50 am39 °FPassing clouds.12 mph87%30.04 "HgN/A
2:20 am39 °FPassing clouds.10 mph87%30.04 "HgN/A
1:50 am39 °FPassing clouds.13 mph87%30.04 "HgN/A
1:20 am39 °FPassing clouds.12 mph87%30.04 "HgN/A
12:50 am39 °FPassing clouds.10 mph87%30.04 "HgN/A
12:20 am41 °FPassing clouds.13 mph81%30.04 "HgN/A
11:50 pm
Sat, Apr 22
41 °FPassing clouds.13 mph81%30.01 "HgN/A
11:20 pm43 °FPassing clouds.13 mph76%30.01 "HgN/A
10:50 pm43 °FPassing clouds.13 mph81%30.01 "HgN/A
10:20 pm43 °FPartly cloudy.9 mph81%30.01 "HgN/A
9:50 pm41 °FScattered showers. Partly cloudy.6 mph87%30.01 "HgN/A
9:20 pm41 °FScattered showers. Passing clouds.8 mph81%30.04 "HgN/A
8:50 pm45 °FScattered showers. Passing clouds.10 mph76%30.01 "HgN/A
8:20 pm45 °FScattered showers. Partly cloudy.12 mph71%30.01 "HgN/A
7:50 pm45 °FPartly sunny.9 mph76%30.01 "HgN/A
7:20 pm45 °FSprinkles. Partly sunny.10 mph76%30.01 "HgN/A
6:50 pm45 °FScattered clouds.15 mph71%30.01 "HgN/A
6:20 pm45 °FScattered clouds.10 mph76%30.01 "HgN/A
5:50 pm45 °FScattered clouds.13 mph81%30.01 "HgN/A
5:20 pm48 °FScattered clouds.6 mph62%30.01 "HgN/A
4:50 pm46 °FSprinkles. Scattered clouds.12 mph71%30.01 "HgN/A
4:20 pm46 °FSprinkles. Scattered clouds.18 mph76%30.01 "HgN/A
3:50 pm50 °FScattered showers. Scattered clouds.17 mph54%30.01 "HgN/A
3:20 pm50 °FScattered showers. Scattered clouds.14 mph50%30.01 "HgN/A
Weather by CustomWeather, © 2017

See weather overviewHow to use our weather pages